Visibility
15.0 15.0 15.0 15.0 15.0 15.0 15.0 15.0 15.0 15.0 15.0 15.0 15.0 15.0 15.0 15.0 15.0 15.0 15.0 15.0 10.0 15.0 15.0 15.0 15.0 15.0 15.0 15.0 15.0 15.0 15.0 15.0 15.0 15.0 15.0 15.0 5.0 0.3 0.1 13.1 6.4 13.7 5.8
15.0 15.0 15.0 15.0 15.0 15.0 15.0 15.0 15.0 15.0 15.0 15.0 15.0 15.0 15.0 15.0 15.0 15.0 15.0 15.0 15.0 14.9 15.0 13.3 15.0 15.0 15.0 15.0 14.6 15.0 15.0 15.0 15.0 15.0 9.2 8.8 0.2 13.4 0.8 0.1 0.1 6.2 8.0
15.0 15.0 15.0 15.0 15.0 15.0 15.0 15.0 15.0 15.0 15.0 15.0 15.0 15.0 15.0 15.0 15.0 15.0 15.0 15.0 15.0 15.0 9.7 14.1 15.0 15.0 15.0 12.1 15.0 15.0 15.0 15.0 15.0 15.0 0.3 12.5 0.1 0.2 0.1 0.2 0.1 0.1 0.2
11.3 11.9 15.0 15.0 15.0 15.0 15.0 15.0 15.0 15.0 15.0 15.0 15.0 15.0 15.0 15.0 15.0 15.0 15.0 15.0 15.0 15.0 12.7 13.1 15.0 15.0 15.0 13.4 14.9 15.0 15.0 15.0 15.0 15.0 15.0 0.3 2.8 0.1 13.5 0.4 0.1 0.3 0.1
13.5 15.0 15.0 15.0 15.0 15.0 15.0 15.0 15.0 15.0 15.0 15.0 15.0 15.0 15.0 15.0 15.0 15.0 15.0 15.0 15.0 13.9 10.9 15.0 14.5 15.0 15.0 14.9 12.0 15.0 15.0 15.0 0.9 0.2 4.2 0.2 0.1 0.0 0.1 12.5 0.4 0.1 0.1
15.0 15.0 15.0 15.0 15.0 15.0 15.0 15.0 15.0 15.0 15.0 15.0 15.0 15.0 15.0 15.0 10.5 0.1 0.1 15.0 15.0 13.6 9.8 14.7 15.0 0.1 0.1 0.1 0.1 1.2 5.8 15.0 0.2 0.2 2.5 0.3 10.1 15.0 2.4 1.1 0.2 0.2 0.1
15.0 15.0 15.0 15.0 15.0 15.0 15.0 15.0 15.0 15.0 15.0 15.0 15.0 15.0 15.0 15.0 0.8 0.0 0.0 15.0 15.0 14.8 13.9 0.4 0.4 1.6 0.2 2.0 0.1 0.0 0.0 0.1 0.2 13.9 15.0 15.0 15.0 15.0 14.9 0.4 10.2 9.5 5.2
15.0 15.0 15.0 15.0 15.0 15.0 15.0 15.0 15.0 15.0 15.0 15.0 15.0 15.0 15.0 15.0 0.7 0.0 0.0 2.2 9.9 9.3 12.9 9.9 3.1 0.8 2.7 9.3 0.1 0.0 0.0 0.1 0.1 0.3 15.0 15.0 15.0 15.0 15.0 15.0 8.8 0.1 0.1
15.0 15.0 15.0 15.0 15.0 15.0 15.0 15.0 15.0 15.0 15.0 15.0 15.0 15.0 0.9 4.4 1.1 0.0 0.0 0.1 0.7 2.9 15.0 15.0 15.0 14.0 0.1 0.1 0.0 0.0 0.0 0.0 0.3 0.5 0.2 0.2 0.1 3.1 15.0 8.5 0.1 0.8 0.1
15.0 15.0 15.0 15.0 15.0 15.0 14.8 15.0 15.0 15.0 15.0 15.0 15.0 15.0 10.8 6.5 7.5 0.3 0.0 0.1 0.0 0.1 0.1 0.6 0.0 0.6 0.0 0.0 0.0 0.0 0.0 0.0 0.0 0.0 0.1 0.1 0.1 0.1 0.1 0.2 11.9 0.5 0.1
15.0 15.0 15.0 15.0 15.0 15.0 15.0 14.9 15.0 15.0 15.0 15.0 15.0 15.0 15.0 6.9 15.0 11.2 0.1 0.0 0.1 0.0 0.1 0.1 0.1 0.0 0.0 0.0 0.1 0.0 0.0 0.0 0.1 0.1 0.1 0.3 0.5 0.7 0.5 0.1 0.1 0.3 0.3
15.0 15.0 15.0 15.0 14.6 15.0 14.2 14.8 15.0 15.0 15.0 15.0 15.0 15.0 15.0 15.0 14.1 11.6 0.5 0.1 0.1 0.1 0.0 0.1 0.0 0.1 0.1 0.1 0.0 0.1 0.3 0.2 0.2 0.2 0.5 0.9 1.5 0.2 0.3 0.7 9.9 3.6 2.3
15.0 15.0 15.0 15.0 15.0 5.8 8.4 5.3 12.8 15.0 13.5 15.0 15.0 15.0 7.6 15.0 9.8 10.9 6.1 0.7 0.2 0.1 0.1 0.1 0.3 1.5 5.7 0.5 3.8 14.2 1.2 0.2 0.3 0.3 0.4 6.7 1.9 1.6 1.8 7.4 14.8 15.0 13.9
15.0 14.0 13.7 15.0 15.0 13.5 6.8 6.2 1.3 1.7 9.1 5.2 2.1 4.1 2.0 9.6 4.0 1.3 1.6 3.4 1.7 0.3 0.4 1.0 1.2 1.0 1.0 1.4 7.0 3.2 14.7 4.7 10.9 3.8 5.5 2.5 0.9 4.1 5.5 2.1 10.4 4.4 11.5
15.0 15.0 14.9 15.0 15.0 4.1 0.5 0.3 0.5 0.2 0.1 0.3 0.3 0.8 0.4 0.2 0.1 0.1 0.6 2.0 0.7 0.4 0.3 0.4 0.4 0.3 0.6 0.4 3.2 6.4 8.4 9.8 3.3 1.2 3.8 1.9 2.1 5.4 1.7 2.5 15.0 15.0 3.5
15.0 15.0 15.0 15.0 15.0 15.0 14.3 4.0 15.0 1.6 0.5 0.6 0.9 0.3 0.2 0.1 0.2 0.1 0.1 0.4 0.5 0.4 0.3 0.5 0.9 0.4 0.3 1.3 2.4 2.0 3.7 1.9 3.6 4.2 2.8 2.6 2.9 3.1 1.6 1.4 7.6 9.4 1.4
1.2 4.2 15.0 12.5 11.3 8.3 15.0 3.8 1.3 9.5 15.0 14.6 2.9 0.6 0.4 0.1 0.2 0.2 0.1 0.1 0.1 0.3 0.2 0.3 0.3 0.5 0.3 0.3 0.7 1.2 0.5 0.4 1.1 2.5 1.5 1.0 1.0 0.4 0.2 0.1 0.1 0.1 0.1
2.3 7.6 2.3 1.9 3.3 6.7 13.0 15.0 12.4 2.6 1.1 2.4 6.4 3.9 0.6 0.2 0.1 0.1 0.1 0.2 0.1 0.1 0.1 0.1 0.1 0.1 0.1 0.1 0.2 0.2 0.2 0.2 0.1 0.1 0.1 0.1 0.1 0.1 0.1 0.1 0.1 0.1 0.2
6.4 11.1 10.2 14.1 15.0 15.0 15.0 15.0 15.0 15.0 15.0 11.3 15.0 14.3 1.9 0.2 0.2 0.2 0.5 0.1 0.1 0.1 0.1 0.1 0.1 0.1 0.1 0.1 0.1 0.1 0.1 0.1 0.1 0.1 0.1 0.1 0.1 0.2 0.2 0.5 0.7 1.1 1.9
12.9 15.0 15.0 15.0 15.0 15.0 15.0 15.0 15.0 15.0 15.0 15.0 4.4 0.6 0.5 1.8 0.5 0.2 0.2 0.1 0.1 0.1 0.1 0.1 0.1 0.1 0.1 0.1 0.1 0.1 0.1 0.1 0.1 0.3 0.6 0.9 1.1 1.6 1.8 2.6 11.4 14.1 9.7
9.9 15.0 15.0 15.0 15.0 15.0 15.0 15.0 15.0 15.0 15.0 10.1 3.3 1.0 7.8 6.6 1.1 0.2 0.1 0.1 0.1 0.1 0.1 0.1 0.1 0.1 0.1 0.1 0.7 0.9 0.9 0.8 1.0 1.3 1.8 2.5 2.6 2.3 3.4 5.3 13.6 15.0 15.0
15.0 15.0 15.0 15.0 15.0 15.0 15.0 15.0 15.0 15.0 15.0 11.9 9.3 15.0 15.0 4.5 3.0 2.6 1.8 0.9 0.7 0.8 0.8 0.8 0.8 0.9 0.9 1.0 1.4 1.6 1.6 1.5 1.8 1.9 2.1 3.1 3.4 2.8 3.1 4.8 9.0 15.0 15.0
15.0 15.0 15.0 15.0 15.0 15.0 15.0 15.0 15.0 15.0 14.8 5.9 7.5 5.2 6.8 1.9 1.5 1.2 0.8 1.0 2.5 2.4 4.3 3.4 2.1 1.8 1.9 1.7 1.6 1.6 1.7 1.8 2.8 9.4 9.9 13.0 15.0 15.0 15.0 15.0 15.0 15.0 15.0
15.0 15.0 15.0 15.0 15.0 15.0 15.0 15.0 15.0 15.0 15.0 14.3 5.4 3.2 5.5 13.0 13.9 14.0 13.2 13.2 14.5 14.3 13.5 15.0 14.8 8.0 9.7 8.6 13.2 15.0 15.0 15.0 15.0 15.0 15.0 15.0 15.0 15.0 15.0 15.0 15.0 15.0 15.0
11.2 11.8 6.9 5.3 5.8 5.9 14.0 15.0 14.7 15.0 15.0 15.0 13.2 13.5 15.0 15.0 15.0 15.0 15.0 15.0 15.0 15.0 15.0 15.0 15.0 15.0 14.1 7.7 8.6 12.1 10.7 12.9 15.0 15.0 15.0 15.0 15.0 15.0 15.0 15.0 15.0 15.0 15.0
15.0 15.0 7.7 6.2 4.0 4.4 4.5 4.2 4.3 6.4 4.8 4.2 4.9 8.2 13.5 15.0 14.7 15.0 15.0 15.0 15.0 15.0 15.0 15.0 15.0 15.0 15.0 15.0 10.5 9.8 15.0 15.0 15.0 15.0 15.0 15.0 15.0 15.0 15.0 15.0 15.0 15.0 15.0